651 
ASUS46 KSEW 242010
RWRWA 

WASHINGTON REGIONAL WEATHER ROUNDUP
NATIONAL WEATHER SERVICE SEATTLE WA
100 PM PDT SUN SEP 24 2017

NOTE:"FAIR" INDICATES FEW OR NO CLOUDS BELOW 12,000 FEET WITH NO 
SIGNIFICANT WEATHER AND/OR OBSTRUCTIONS TO VISIBILITY.

WAZ507-509-555>559-242100-
SEATTLE, TACOMA, EVERETT, AND VICINITY
  
CITY           SKY/WX    TMP DP  RH WIND       PRES   REMARKS
EVERETT        SUNNY     64  49  57 VRB3      30.14F                  
BOEING FIELD   MOSUNNY   66  50  56 VRB6      30.13F                  
RENTON         SUNNY     67  51  56 N5        30.13F                  
SEATAC AIRPORT MOSUNNY   65  51  60 W8        30.14F                  
JBLM-MCCHORD   SUNNY     66  50  56 CALM      30.14F                  
PUYALLUP       FAIR      68  50  52 CALM      30.14F                  
BREMERTON      SUNNY     67  49  52 VRB6      30.14F                  
JBLM-FT LEWIS  SUNNY     67  52  59 CALM      30.13F                  
TACOMA NARROWS SUNNY     65  51  60 VRB5      30.15F                  
$$
 
WAZ001-503-506-510-514-515-242100-
NORTH INTERIOR
  
CITY           SKY/WX    TMP DP  RH WIND       PRES   REMARKS
BELLINGHAM     PTSUNNY   63  49  60 CALM      30.13F                  
FRIDAY HARBOR  SUNNY     62  52  69 SE3       30.15F                  
EASTSOUND      MOSUNNY   59  50  72 N5        30.14S                  
PORT ANGELES   SUNNY     60  52  74 VRB7      30.16S                  
EDIZ HOOK      FAIR      54  49  84 NW7       30.15S                  
PORT TOWNSEND  FAIR      66  50  55 SE6       30.13F                  
NAS WHIDBEY    PTSUNNY   61  48  62 NW6       30.18F                  
ARLINGTON      SUNNY     68  48  48 W5        30.13F                  
BURLINGTON     CLOUDY    64  52  63 CALM      30.14S                  
$$
 
WAZ020-022-039-040-504-511-512-242100-
SOUTHWEST INTERIOR
  
CITY           SKY/WX    TMP DP  RH WIND       PRES   REMARKS
SHELTON        SUNNY     69  48  47 CALM      30.11F                  
OLYMPIA        SUNNY     67  51  56 E5        30.14F                  
CHEHALIS         N/A     66  52  59 CALM      30.14F                  
KELSO          SUNNY     66  51  58 VRB5      30.14S                  
VANCOUVER      SUNNY     63  53  70 SW6       30.13F                  
SCAPPOOSE, OR  SUNNY     67  51  56 NE5       30.12F                  
PORTLAND, OR   MOSUNNY   63  50  62 CALM      30.13F                  
$$
 
WAZ021-516-517-242100-
WASHINGTON COAST
  
CITY           SKY/WX    TMP DP  RH WIND       PRES   REMARKS
FORKS          MOSUNNY   63  52  67 W6        30.16S                  
HOQUIAM        SUNNY     65  52  62 S3        30.15S                  
ASTORIA, OR    SUNNY     64  53  67 N8        30.13F                  
$$
 
WAZ019-023-024-040-567>569-242100-
CASCADE MOUNTAINS AND COLUMBIA GORGE
  
CITY           SKY/WX    TMP DP  RH WIND       PRES   REMARKS
STAMPEDE PASS  NOT AVBL                                               
TROUTDALE, OR  SUNNY     66  49  54 NW5       30.13S                  
HOOD RIVER, OR NOT AVBL                                               
THE DALLES, OR MOSUNNY   69  46  43 VRB3      30.09F                  
$$

WAZ026-027-041>044-520-521-242100-
EAST SLOPES
  
CITY           SKY/WX    TMP DP  RH WIND       PRES   REMARKS
OMAK           CLOUDY    62  41  46 N6        30.11S                  
WENATCHEE      CLOUDY    67  42  40 VRB3      30.08S                  
ELLENSBURG     PTSUNNY   68  45  43 N3        30.10S                  
YAKIMA         CLOUDY    71  43  36 CALM      30.10S                  
SUNNYSIDE ARPT PTCLDY    67  46  47 CALM      30.09S                  
YAKIMA TC      FAIR      67  41  38 W6        30.07F                  
$$

WAZ028-034-035-242100-
COLUMBIA BASIN
  
CITY           SKY/WX    TMP DP  RH WIND       PRES   REMARKS
EPHRATA        CLOUDY    69  35  28 CALM      30.07F                  
MOSES LAKE     PTSUNNY   68  40  35 SW6       30.09F                  
PASCO          SUNNY     71  44  37 VRB6      30.09F                  
RICHLAND ARPT  CLEAR     72  43  34 CALM      30.09F                  
HERMISTON, OR  SUNNY     69  46  43 VRB6      30.10F                  
$$

WAZ036>038-242100-
NORTHEAST WASHINGTON
  
CITY           SKY/WX    TMP DP  RH WIND       PRES   REMARKS
SPOKANE GEIGER MOSUNNY   63  40  42 N7        30.09F                  
SPOKANE FELTS  SUNNY     65  41  41 CALM      30.09F                  
FAIRCHILD AFB  SUNNY     64  38  38 W5        30.09F                  
COEURDALENE,ID MOSUNNY   63  38  39 W6        30.09F                  
DEER PARK      SUNNY     63  40  42 VRB6      30.09F                  
$$

WAZ029>033-242100-
SOUTHEAST WASHINGTON
  
CITY           SKY/WX    TMP DP  RH WIND       PRES   REMARKS
PULLMAN        SUNNY     60  39  45 VRB3      30.12F                  
LEWISTON, ID   SUNNY     62  43  49 CALM      30.12F                  
WALLA WALLA    SUNNY     67  39  35 W7        30.10F                  
PENDLETON, OR  SUNNY     66  40  38 NW6       30.11F                  
$$